Location: Newark
(50.2306°N, 14.0814°E)
Time: 23:18:16
(UTC+00:00)

N. Korean satellite - Pass Details

Date: 14 December 2019
Orbit: 454 x 507 km, 97.2° (Epoch: 21 January)

Event Time Altitude Azimuth Distance (km) Brightness Sun altitude
Rises 15:29:50 0° 151° (SSE) 2,598 10.3 -4.7°
Reaches altitude 10° 15:31:58 10° 145° (SE) 1,714 9.3 -5.0°
Maximum altitude 15:35:31 46° 71° (ENE) 686 6.9 -5.5°
Drops below altitude 10° 15:39:02 10° 358° (N) 1,707 9.1 -6.0°
Sets 15:41:09 0° 353° (N) 2,586 10.0 -6.3°
